Regional Weather Roundup
Issued by NWS Charleston, SC

Current Version | Previous Version | Graphics & Text | Print | Product List | Glossary On
Versions: 1 2 3 4 5 6 7 8 9 10 11 12 13 14 15 16 17 18 19 20 21 22 23 24 25 26 27 28 29 30 31 32 33 34 35 36 37 38 39 40 41 42 43 44 45 46 47 48 49 50
000 ASUS42 KCHS 061012 RWRCHS REGIONAL WEATHER ROUNDUP NATIONAL WEATHER SERVICE CHARLESTON SC 500 AM EST SAT FEB 06 2016 NOTE: "FAIR" INDICATES FEW OR NO CLOUDS BELOW 12,000 FEET WITH NO SIGNIFICANT WEATHER AND/OR OBSTRUCTIONS TO VISIBILITY. NOT ALL STATIONS ARE QUALITY CONTROLLED BY THE NATIONAL WEATHER SERVICE. USE DATA WITH CAUTION...ESPECIALLY DEWPOINT OBSERVATIONS. NOTICE: OBSERVATIONS FOR THE SAVANNAH-HILTON HEAD INTERNATIONAL AIRPORT /KSAV/ HAVE BEEN TEMPORARILY REMOVED DUE TO AN ERRONEOUS TEMPERATURE SENSOR. THE OBSERVATION WILL BE REINTRODUCED ONCE REPAIRS ARE COMPLETE. SCZ027-030-031-034>040-042>050-061100- ...SOUTHEAST SOUTH CAROLINA... CITY SKY/WX TMP DP RH WIND PRES REMARKS N CHARLESTON CLEAR 32 28 85 N7 30.38R WCI 26 WATERFRONT PRK N/A 43 32 65 N9 30.19F MOUNT PLEASANT FAIR 37 32 81 N5 30.37R WCI 34 JOHNS ISLAND FAIR 39 30 70 N7 30.37R WCI 34 PINOPOLIS N/A 43 34 70 E7 30.32S MONCKS CORNER FAIR 34 27 75 N6 30.39S WCI 29 SUMMERVILLE FAIR 34 34 100 N3 30.41 BEAUFORT MCAS CLEAR 38 30 73 N9 30.37R WCI 31 BEAUFORT ARPT FAIR 39 30 70 N9 30.36R WCI 33 HILTON HEAD IS PTCLDY 45 32 61 N9 30.37R WALTERBORO SUNNY 32 32 100 N7 30.41S WCI 26 ALLENDALE FAIR 32 30 93 CALM 30.40F ...SOUTHERN MIDLANDS AND PEE DEE... CITY SKY/WX TMP DP RH WIND PRES REMARKS GEORGETOWN NOT AVBL KINGSTREE NOT AVBL ORANGEBURG CLEAR 31 27 85 CALM 30.41R BARNWELL FAIR 30 30 100 CALM 30.41F AIKEN N/A 27 23 86 CALM 30.42F MANNING FAIR 28 28 100 CALM 30.42R COLUMBIA CLOUDY 29 24 82 CALM 30.41R SUMTER CLEAR 30 25 79 CALM 30.40R FLORENCE CLOUDY 29 28 96 N3 30.42R MYRTLE BEACH CLEAR 36 27 69 N8 30.41S WCI 29 N MYRTLE BEACH CLEAR 35 29 78 N6 30.39S WCI 30 $$ GAZ063-065-086>088-099>101-113>116-118-119-134>141-150-061100- ...SOUTHEAST GEORGIA... CITY SKY/WX TMP DP RH WIND PRES REMARKS SAVANNAH ARPT CLEAR 36 29 75 N7 30.35F WCI 30 HUNTER AAF PTCLDY 41 28 60 N5 30.32F FORT STEWART CLOUDY 37 30 75 CALM 30.32F STATESBORO CLEAR 36 35 96 N7 30.36F WCI 30 SYLVANIA SUNNY 32 32 100 NE3 30.38F CLAXTON FAIR 34 32 92 CALM 30.36F ...CSRA...CENTRAL AND FAR SOUTHEAST GEORGIA... CITY SKY/WX TMP DP RH WIND PRES REMARKS THOMSON PTCLDY 29 29 100 CALM 30.43S AUGUSTA-BUSH CLOUDY 27 25 92 CALM 30.40F AUGUSTA-DANIEL PTCLDY 35 23 61 NE3 30.39F SWAINSBORO FAIR 36 27 69 NE6 30.37F WCI 31 VIDALIA CLEAR 34 30 86 NE8 30.34F WCI 27 EASTMAN FAIR 31 31 100 NE5 30.36F WCI 26 HAZLEHURST FAIR 38 32 79 NE3 30.32F ALMA CLOUDY 39 31 72 VRB5 30.31F WCI 36 WAYCROSS CLOUDY 44 34 68 NE5 30.31F JESUP CLOUDY 43 34 70 NE5 30.33F BAXLEY CLOUDY 39 32 75 NE8 30.32F WCI 34 BRUNSWICK PTCLDY 43 32 65 N7 30.32S SAINT SIMONS CLOUDY 43 35 73 N10 30.30R $$ SCZ027-028-034-036>038-045-046-048>050-GAZ119-141-061100- ...LAKE AND SUPPLEMENTAL COASTAL OBSERVATIONS... STATION/POSITION TIME TEMP WIND PRES WAVE SWELL AIR SEA DIR/SP/G HT/PER HT/PER/DIR (UTC) (F) (DEG/KT/KT) (MB) (FT/S) (FT/S/D) WINYAH BAY 0845 38 350/ 6 1027.0 LAKE MURRAY 0900 33 CALM / 2 1028.8R ACE BASIN NERRS NOT AVBL FORT PULASKI 0900 44 55 350/ 8/ 10 1027.6R SAPELO ISLAND 0900 46 350/ 12 1026.0S $$ ANZ835-935-AMZ111-154-330-350-352-354-370-450-454-472-061100- ...C-MAN AND BUOY OBSERVATIONS... STATION/POSITION TIME TEMP WIND PRES WAVE SWELL AIR SEA DIR/SP/G HT/PER HT/PER/DIR (UTC) (F) (DEG/KT/KT) (MB) (FT/S) (FT/S/D) BUOY 41004 0950 53 67 20/ 17/ 21 1025.7F 5/10 3/10 BUOY 41008 0950 51 57 30/ 19/ 23 1025.7S 4/ 8 2/ 80/ 8 FOLLY BEACH CMAN 1000 44 360/ 16/ 19 1028.2R CAPERS NEARSHORE 0908 47 20/ 16/ 19 1026.2F FRIPP NEARSHORE NOT AVBL STATION/POSITION TIME TEMP WIND PRES WAVE SWELL AIR SEA DIR/SP/G HT/PER HT/PER/DIR (UTC) (F) (DEG/KT/KT) (MB) (FT/S) (FT/S/D) 5E ST. MARYS GA 0921 58 N/A 5/ 5 FRYING PAN BUOY 0900 50 69 360/ 17/ 21 1027.0F BUOY 41025 0950 46 73 10/ 14/ 21 1028.3S 8/12 7/ 70/12 CAPE LOOKOUT NC NOT AVBL BUOY 41002 0950 59 69 50/ 16/ 21 N/A 10/ 9 8/ 9 BUOY 41010 0920 67 73 1021.5R ST AUGUSTINE FL 1000 55 59 360/ 26/ 28 1023.9R $$

USA.gov is the U.S. government's official web portal to all federal, state and local government web resources and services.